Location: ???????
(55.4362°N, 38.1183°E)
Time: 17:01:12
(UTC+00:00)

Cosmos 2219 Rocket - Pass Details

Date: 30 October 2021
Orbit: 826 x 848 km, 71.0° (Epoch: 04 December)

Event Time Altitude Azimuth Distance (km) Brightness Sun altitude
Rises 16:36:12 0° 212° (SSW) 3,361 5.6 -23.5°
Reaches altitude 10° 16:38:37 10° 212° (SSW) 2,434 4.8 -23.8°
Maximum altitude 16:44:12 90° 287° (WNW) 842 2.1 -24.6°
Enters shadow 16:46:34 37° 33° (NNE) 1,283 2.9 -25.0°
